Erie, CO

7:22 PM MDT on April 30, 2017 (GMT -0600)
Erie Municipal Airport

Weather History for KEIK - August, 2014

Change the Weather History Date:

Wednesday, August 27, 2014

  Actual Average (KBJC) Record (KBJC)
Temperature  
Mean Temperature 66 °F -  
Max Temperature 77 °F 82 °F 95 °F (2001)
Min Temperature 55 °F 58 °F 46 °F (1987)
Cooling Degree Days 1    
Growing Degree Days 16 (Base 50)    
Moisture  
Dew Point 55 °F    
Average Humidity 71    
Maximum Humidity 91    
Minimum Humidity 39    
Precipitation  
Precipitation 0.00 in - - ()
Sea Level Pressure  
Sea Level Pressure 30.14 in    
Wind  
Wind Speed 4 mph (North)    
Max Wind Speed 18 mph    
Max Gust Speed 24 mph    
Visibility 10 miles    
Events Rain , Thunderstorm    
Averages and records for this station are not official NWS values.
T = Trace of Precipitation, MM = Missing Value Source: NWS Daily Summary

Daily Weather History Graph

Daily Weather History Graph

Search for Another Location

Airport or City:

Trip Planner

Search our weather history database for the weather conditions in past years. The results will help you decide how hot, cold, wet, or windy it might be!

Date:

Astronomy

Aug. 27, 2014 Rise Set
Actual Time 6:23 AM MDT 7:39 PM MDT
Civil Twilight 5:55 AM MDT 8:07 PM MDT
Nautical Twilight 5:21 AM MDT 8:40 PM MDT
Astronomical Twilight 4:46 AM MDT 9:16 PM MDT
Moon 8:21 AM MDT (8/27) 8:32 PM MDT (8/27)
Length of Visible Light 14h 12m
Length of Day
13h 16m
Waxing Crescent, 4% of the Moon is Illuminated
Aug 27
Waxing Crescent
Sep 2
First Quarter
Sep 8
Full
Sep 15
Last Quarter
Sep 24
New

Hourly Weather History & Observations

Time (MDT) Temp. Dew Point Humidity Pressure Visibility Wind Dir Wind Speed Gust Speed Precip Events Conditions
12:15 AM 64.4 °F 52.3 °F 65% 30.18 in 10.0 mi SE 3.5 mph - N/A   Mostly Cloudy
12:35 AM 64.4 °F 52.9 °F 66% 30.19 in 10.0 mi Calm Calm - N/A   Scattered Clouds
12:55 AM 64.2 °F 52.2 °F 65% 30.19 in 10.0 mi Calm Calm - N/A   Mostly Cloudy
1:15 AM 63.9 °F 51.6 °F 64% 30.18 in 10.0 mi SW 3.5 mph - N/A Rain Light Rain
1:35 AM 64.0 °F 51.3 °F 63% 30.18 in 10.0 mi Calm Calm - N/A   Overcast
1:55 AM 63.5 °F 51.1 °F 64% 30.18 in 10.0 mi SSW 4.6 mph - N/A   Overcast
2:15 AM 63.7 °F 51.3 °F 64% 30.18 in 10.0 mi South 9.2 mph - N/A   Overcast
2:35 AM 63.5 °F 52.0 °F 66% 30.17 in 10.0 mi SSW 5.8 mph - N/A   Overcast
2:55 AM 63.5 °F 52.9 °F 68% 30.17 in 10.0 mi SSW 5.8 mph - N/A   Overcast
3:15 AM 63.7 °F 53.8 °F 70% 30.16 in 10.0 mi Calm Calm - N/A   Overcast
3:35 AM 62.2 °F 55.4 °F 78% 30.15 in 10.0 mi Calm Calm - N/A   Overcast
3:55 AM 61.3 °F 54.1 °F 77% 30.15 in 10.0 mi Calm Calm - N/A   Scattered Clouds
4:15 AM 61.0 °F 54.3 °F 79% 30.14 in 10.0 mi Calm Calm - N/A   Clear
4:35 AM 59.9 °F 54.7 °F 83% 30.14 in 10.0 mi Calm Calm - N/A   Clear
4:55 AM 59.9 °F 54.7 °F 83% 30.14 in 10.0 mi Calm Calm - N/A   Clear
5:15 AM 59.2 °F 55.4 °F 87% 30.14 in 10.0 mi Calm Calm - N/A   Clear
5:35 AM 59.4 °F 55.6 °F 87% 30.14 in 10.0 mi SW 3.5 mph - N/A   Clear
5:55 AM 59.0 °F 56.3 °F 91% 30.14 in 10.0 mi Calm Calm - N/A   Clear
6:15 AM 59.0 °F 56.3 °F 91% 30.14 in 10.0 mi Calm Calm - N/A   Clear
6:35 AM 59.0 °F 56.5 °F 91% 30.15 in 10.0 mi Calm Calm - N/A   Mostly Cloudy
6:55 AM 59.5 °F 56.8 °F 91% 30.15 in 10.0 mi Calm Calm - N/A   Overcast
7:15 AM 60.1 °F 56.8 °F 89% 30.17 in 10.0 mi Calm Calm - N/A   Scattered Clouds
7:35 AM 60.8 °F 57.2 °F 88% 30.17 in 10.0 mi Calm Calm - N/A   Mostly Cloudy
7:55 AM 61.2 °F 57.6 °F 88% 30.16 in 10.0 mi North 3.5 mph - N/A   Mostly Cloudy
8:15 AM 62.2 °F 56.3 °F 81% 30.17 in 10.0 mi North 3.5 mph - N/A   Scattered Clouds
8:35 AM 62.6 °F 55.4 °F 77% 30.17 in 10.0 mi North 5.8 mph - N/A   Mostly Cloudy
9:15 AM 63.0 °F 55.9 °F 78% 30.17 in 10.0 mi North 6.9 mph - N/A   Mostly Cloudy
9:35 AM 64.0 °F 56.5 °F 76% 30.18 in 10.0 mi North 5.8 mph - N/A   Overcast
9:55 AM 63.9 °F 56.5 °F 77% 30.18 in 10.0 mi NNE 6.9 mph - N/A   Overcast
10:15 AM 64.8 °F 57.0 °F 76% 30.19 in 10.0 mi Calm Calm - N/A   Overcast
10:35 AM 64.8 °F 56.3 °F 74% 30.18 in 10.0 mi NNE 3.5 mph - N/A   Overcast
10:55 AM 65.3 °F 56.7 °F 74% 30.18 in 10.0 mi NNW 3.5 mph - N/A   Overcast
11:15 AM 66.4 °F 56.5 °F 70% 30.17 in 10.0 mi NW 4.6 mph - N/A   Overcast
11:35 AM 68.9 °F 55.9 °F 63% 30.17 in 10.0 mi NNW 6.9 mph - N/A   Scattered Clouds
11:55 AM 70.2 °F 55.2 °F 59% 30.16 in 10.0 mi North 4.6 mph - N/A   Clear
12:15 PM 71.1 °F 55.0 °F 57% 30.15 in 10.0 mi NNE 4.6 mph - N/A   Clear
12:35 PM 72.7 °F 54.0 °F 52% 30.14 in 10.0 mi NNE 4.6 mph - N/A   Clear
12:55 PM 73.6 °F 54.7 °F 51% 30.13 in 10.0 mi NNE 6.9 mph - N/A   Clear
1:15 PM 74.3 °F 54.5 °F 50% 30.13 in 10.0 mi NNE 6.9 mph - N/A   Clear
1:35 PM 75.6 °F 54.0 °F 47% 30.12 in 10.0 mi NE 5.8 mph - N/A   Clear
1:55 PM 76.3 °F 53.6 °F 45% 30.11 in 10.0 mi NE 6.9 mph - N/A   Scattered Clouds
2:15 PM 74.8 °F 52.5 °F 46% 30.11 in 10.0 mi NE 10.4 mph - N/A   Scattered Clouds
2:35 PM 76.6 °F 50.9 °F 40% 30.11 in 10.0 mi North 5.8 mph - N/A   Scattered Clouds
2:55 PM 77.5 °F 50.7 °F 39% 30.10 in 10.0 mi Calm Calm - N/A   Scattered Clouds
3:15 PM 77.2 °F 50.7 °F 39% 30.10 in 10.0 mi North 6.9 mph - N/A   Scattered Clouds
3:35 PM 75.9 °F 51.4 °F 42% 30.10 in 10.0 mi WNW 12.7 mph 17.3 mph N/A   Scattered Clouds
3:55 PM 69.6 °F 51.3 °F 52% 30.10 in 10.0 mi WNW 18.4 mph 24.2 mph N/A Thunderstorm Thunderstorm
4:15 PM 63.5 °F 57.6 °F 81% 30.10 in 7.0 mi NNW 10.4 mph - N/A Rain , Thunderstorm Light Thunderstorms and Rain
4:35 PM 65.7 °F 59.2 °F 80% 30.10 in 10.0 mi North 10.4 mph - N/A   Mostly Cloudy
4:55 PM 69.8 °F 56.5 °F 63% 30.08 in 10.0 mi North 11.5 mph - N/A   Mostly Cloudy
5:15 PM 71.8 °F 55.8 °F 57% 30.07 in 10.0 mi North 6.9 mph - N/A   Clear
5:35 PM 71.6 °F 52.0 °F 50% 30.09 in 10.0 mi North 9.2 mph - N/A Thunderstorm Clear
5:55 PM 68.2 °F 52.2 °F 56% 30.09 in 10.0 mi North 8.1 mph - N/A   Clear
6:15 PM 67.1 °F 52.9 °F 60% 30.09 in 10.0 mi North 3.5 mph - N/A Thunderstorm Mostly Cloudy
6:35 PM 66.6 °F 54.3 °F 65% 30.11 in 10.0 mi West 5.8 mph - N/A   Overcast
6:55 PM 66.4 °F 55.8 °F 69% 30.12 in 10.0 mi West 6.9 mph - N/A Thunderstorm Overcast
7:15 PM 66.6 °F 55.2 °F 67% 30.14 in 10.0 mi West 10.4 mph - N/A Rain , Thunderstorm Light Thunderstorms and Rain
7:35 PM 63.5 °F 55.6 °F 75% 30.13 in 10.0 mi NNW 9.2 mph - N/A Rain Rain
7:55 PM 62.4 °F 57.2 °F 83% 30.11 in 10.0 mi NNE 4.6 mph - N/A   Mostly Cloudy
8:15 PM 62.6 °F 57.9 °F 85% 30.13 in 10.0 mi Calm Calm - N/A Rain Light Rain
8:35 PM 62.4 °F 58.3 °F 86% 30.16 in 10.0 mi South 5.8 mph - N/A Rain Light Rain
8:55 PM 61.9 °F 57.0 °F 84% 30.17 in 10.0 mi South 6.9 mph - N/A Rain Rain
9:15 PM 61.7 °F 55.9 °F 81% 30.14 in 10.0 mi SE 5.8 mph - N/A Rain , Thunderstorm Light Thunderstorms and Rain
9:35 PM 61.0 °F 54.5 °F 79% 30.13 in 10.0 mi SSW 4.6 mph - N/A   Light Drizzle
9:55 PM 60.3 °F 54.5 °F 81% 30.14 in 10.0 mi Calm Calm - N/A   Clear
10:15 PM 59.2 °F 54.7 °F 85% 30.13 in 10.0 mi Calm Calm - N/A   Clear
10:35 PM 58.3 °F 54.9 °F 88% 30.14 in 10.0 mi Calm Calm - N/A   Clear
11:15 PM 55.9 °F 53.1 °F 90% 30.15 in 10.0 mi Calm Calm - N/A   Clear
11:35 PM 57.7 °F 54.7 °F 90% 30.17 in 10.0 mi ESE 9.2 mph - N/A   Clear
11:55 PM 57.7 °F 54.1 °F 88% 30.17 in 10.0 mi ESE 5.8 mph - N/A   Clear